User: anonymous   Login
Location: Carbonear
(47.7333°N, 53.2500°W)
Time: 14:00:24
(UTC+00:00)
Language:

AO-109 - Orbit

View from above orbital plane
View from above orbital plane
View from above satellite
View from above satellite

Ground track
Ground track

The orbit data is extracted from the following two-line orbital elements,

1 47311U 21002C   22341.42780327  .00011526  00000-0  40977-3 0  9991
2 47311  60.6853  69.6390 0038444  79.5148 281.0270 15.28774719104877
Epoch (UTC): 07 December 2022 10:16:02
Eccentricity: 0.0038444
inclination: 60.6853°
perigee height: 453 km
apogee height: 506 km
right ascension of ascending node: 69.6390°
argument of perigee: 79.5148°
revolutions per day: 15.28774719
mean anomaly at epoch: 281.0270°
orbit number at epoch: 10487

The dashed part of the orbit path shows where the satellite is in the earth's shadow,  

DLR